Grand Junction, CO

8:33 AM MDT on October 20, 2019 (GMT -0600)
Walker

Weather History for KGJT - March, 2019

Change the Weather History Date:

Saturday, March 30, 2019

  Actual Average Record
Temperature  
Mean Temperature 42 °F 47 °F  
Max Temperature 53 °F 60 °F 79 °F (1971)
Min Temperature 31 °F 34 °F 16 °F (1987)
Degree Days  
Heating Degree Days 23 18  
Month to date heating degree days 633 635  
Since 1 July heating degree days 5088 5014  
Cooling Degree Days 0 0  
Month to date cooling degree days 0 0  
Year to date cooling degree days 0 0  
Moisture  
Dew Point 26 °F    
Average Humidity 60    
Maximum Humidity 89    
Minimum Humidity 30    
Precipitation  
Precipitation 0.00 in 0.04 in 0.55 in (1953)
Month to date precipitation 2.29 0.89  
Year to date precipitation 3.73 2.01  
Snow  
Snow 0.00 in 0.10 in 3.30 in (1984)
Month to date snowfall 0.0 2.5  
Since 1 July snowfall 17.4 18.0  
Snow Depth 0.00 in    
Sea Level Pressure  
Sea Level Pressure 30.20 in    
Wind  
Wind Speed 5 mph (NNW)    
Max Wind Speed 23 mph    
Max Gust Speed 30 mph    
Visibility 10 miles    
Events      
T = Trace of Precipitation, MM = Missing Value Source: NWS Daily Summary

Daily Weather History Graph

Daily Weather History Graph

Search for Another Location

Airport or City:

Astronomy

Mar. 30, 2019 Rise Set
Actual Time 7:02 AM MDT 7:35 PM MDT
Civil Twilight 6:35 AM MDT 8:02 PM MDT
Nautical Twilight 6:03 AM MDT 8:34 PM MDT
Astronomical Twilight 5:31 AM MDT 9:07 PM MDT
Moon 4:20 AM MDT (3/30) 2:23 PM MDT (3/30)
Length of Visible Light 13h 27m
Length of Day
12h 33m
Waning Crescent, 26% of the Moon is Illuminated
Mar 30
Waning Crescent
Apr 5
New
Apr 12
First Quarter
Apr 19
Full
Apr 26
Last Quarter

Hourly Weather History & Observations

Time (MDT) Temp. Windchill Dew Point Humidity Pressure Visibility Wind Dir Wind Speed Gust Speed Precip Events Conditions
12:53 AM 33.1 °F - 28.0 °F 82% 30.17 in 10.0 mi Calm Calm - N/A   Partly Cloudy
1:53 AM 32.0 °F - 28.9 °F 88% 30.19 in 10.0 mi Calm Calm - N/A   Overcast
2:53 AM 34.0 °F - 30.9 °F 89% 30.20 in 10.0 mi Calm Calm - N/A   Overcast
3:53 AM 32.0 °F - 28.9 °F 88% 30.18 in 10.0 mi Calm Calm - N/A   Partly Cloudy
4:53 AM 33.1 °F 28.7 °F 30.0 °F 89% 30.19 in 10.0 mi East 4.6 mph - N/A   Overcast
5:53 AM 34.0 °F - 30.0 °F 85% 30.23 in 10.0 mi Calm Calm - N/A   Overcast
6:02 AM 34.0 °F - 30.0 °F 85% 30.24 in 10.0 mi Calm Calm - N/A   Overcast
6:21 AM 34.0 °F - 30.0 °F 85% 30.25 in 10.0 mi Calm Calm - N/A   Overcast
7:53 AM 35.1 °F - 28.9 °F 78% 30.28 in 10.0 mi Calm Calm - N/A   Overcast
8:53 AM 37.0 °F - 30.9 °F 79% 30.30 in 10.0 mi Calm Calm - N/A   Overcast
9:53 AM 41.0 °F 39.0 °F 26.1 °F 55% 30.29 in 10.0 mi Variable 3.5 mph - N/A   Clear
10:53 AM 43.0 °F 40.3 °F 26.1 °F 51% 30.29 in 10.0 mi SSW 4.6 mph - N/A   Clear
11:53 AM 45.0 °F 41.8 °F 26.1 °F 48% 30.27 in 10.0 mi West 5.8 mph - N/A   Mostly Cloudy
12:53 PM 48.0 °F - 26.1 °F 42% 30.23 in 10.0 mi Variable 4.6 mph - N/A   Partly Cloudy
1:53 PM 46.9 °F - 25.0 °F 42% 30.21 in 10.0 mi WNW 4.6 mph - N/A   Partly Cloudy
2:53 PM 48.9 °F - 24.1 °F 38% 30.18 in 10.0 mi West 6.9 mph - N/A   Clear
3:53 PM 51.1 °F - 24.1 °F 35% 30.16 in 10.0 mi West 9.2 mph - N/A   Overcast
4:53 PM 52.0 °F - 24.1 °F 34% 30.13 in 10.0 mi Calm Calm - N/A   Scattered Clouds
5:53 PM 51.1 °F - 21.9 °F 32% 30.12 in 10.0 mi Variable 4.6 mph - N/A   Clear
6:53 PM 51.1 °F - 21.0 °F 31% 30.13 in 10.0 mi North 9.2 mph - N/A   Scattered Clouds
7:14 PM 48.9 °F - 21.9 °F 35% 30.16 in 10.0 mi NE 12.7 mph - N/A   Scattered Clouds
7:53 PM 46.0 °F 40.6 °F 24.1 °F 42% 30.15 in 10.0 mi NE 11.5 mph - N/A   Clear
8:53 PM 44.1 °F 37.7 °F 23.0 °F 43% 30.16 in 10.0 mi NE 12.7 mph - N/A   Clear
9:53 PM 44.1 °F 38.1 °F 21.0 °F 40% 30.17 in 10.0 mi NE 11.5 mph 24.2 mph N/A   Clear
10:53 PM 43.0 °F 40.3 °F 21.0 °F 42% 30.18 in 10.0 mi WNW 4.6 mph - N/A   Clear
11:53 PM 39.9 °F 34.5 °F 21.9 °F 49% 30.18 in 10.0 mi NNW 8.1 mph - N/A   Clear